Regional Weather Roundup
Issued by NWS Sterling, VA

Home | Current Version | Previous Version | Graphics & Text | Print | Product List | Glossary On
Versions: 1 2 3 4 5 6 7 8 9 10 11 12 13 14 15 16 17 18 19 20 21 22 23 24 25 26 27 28 29 30 31 32 33 34 35 36 37 38 39 40 41 42 43 44 45 46 47 48 49 50
000
ASUS41 KLWX 240310
RWRLWX

REGIONAL WEATHER ROUNDUP
NATIONAL WEATHER SERVICE BALTIMORE MD/WASHINGTON DC
1100 PM EDT WED JUL 23 2014

Note: "FAIR" indicates few or no clouds below 12,000 feet
with no significant weather and/or obstructions to visibility.
 TC=TEMPERATURE CELSIUS

 * =Non NWS site. Station does not report precipitation (e.g. rain,
    snow, etc.), thunder, or fog.

DCZ001-MDZ009-015-VAZ040>042-051-053>054-240400-
WASHINGTON METRO
  /KDAA//-FT BELVOIR

CITY           SKY/WX    TMP DP  RH WIND       PRES   REMARKS
WASHINGTON NAT MOCLDY    83  68  60 SW5       29.86R
DULLES         PTCLDY    76  68  76 NW7       29.87S
ANDREWS AFB    MOCLDY    78  70  75 CALM      29.87R
QUANTICO       MOCLDY    79  71  76 SW10      29.88R
COLLEGE PARK*  MOCLDY    79  70  73 CALM      29.85R
LEESBURG*      CLEAR     73  73 100 CALM      29.89R
MANASSAS*      PTCLDY    75  70  83 CALM      29.87R
GAITHERSBURG*  CLEAR     72  70  94 CALM      29.90S

$$

MDZ006>007-011-014-240400-
BALTIMORE METRO

CITY           SKY/WX    TMP DP  RH WIND       PRES   REMARKS
BWI AIRPORT    PTCLDY    73  72  96 CALM      29.85R
MD SCIENCE CTR   N/A     77  72  84 MISG      29.86R
MARTIN STATE   PTCLDY    73  73 100 CALM      29.86S
ANNAPOLIS      MOCLDY    77  71  82 CALM      29.84S
FORT MEADE*    PTCLDY    72  68  88 CALM      29.87S

$$

MDZ012-015-019>023-240400-
MARYLAND EASTERN SHORE

CITY           SKY/WX    TMP DP  RH WIND       PRES   REMARKS
OCEAN CITY     MOCLDY    79  75  87 SW9       29.85F
SALISBURY      NOT AVBL
BAY BRIDGE AP*   N/A     75  70  83 E5        29.84F
CAMBRIDGE*     CLOUDY    77  70  78 N18G31    29.85R
EASTON*        LGT RAIN  75  75 100 CALM      29.90R

$$

MDZ017>025-240400-
SOUTHERN MARYLAND

CITY           SKY/WX    TMP DP  RH WIND       PRES   REMARKS
PATUXENT RIVER CLOUDY    80  69  69 W13       29.85R THUNDER
ST INIGOES     CLOUDY    82  68  62 W9G20     29.85R THUNDER
LEONARDTOWN*   CLOUDY    77  68  73 NW3       29.88R

$$

MDZ003>005-240400-
NORTH CENTRAL MARYLAND

CITY           SKY/WX    TMP DP  RH WIND       PRES   REMARKS
FREDERICK*     CLEAR     72  72 100 SE3       29.89S
HAGERSTOWN APT CLEAR     77  68  73 N5        29.88F
WESTMINSTER*   PTCLDY    72  70  94 CALM      29.89S

$$

MDZ501>502-240400-
WESTERN MARYLAND

CITY           SKY/WX    TMP DP  RH WIND       PRES   REMARKS
OAKLAND*       NOT AVBL
CUMBERLAND*    PTCLDY    79  64  61 N5        29.95S

$$

VAZ025>031-240400-
SHENANDOAH VALLEY

CITY           SKY/WX    TMP DP  RH WIND       PRES   REMARKS
WINCHESTER*    PTCLDY    73  68  83 CALM      29.90S
STAUNTON*      PTCLDY    71  68  91 CALM      29.96S FOG

$$

WVZ021-048>050-054>055-240400-
EASTERN WEST VIRGINIA PANHANDLE

CITY           SKY/WX    TMP DP  RH WIND       PRES   REMARKS
MARTINSBURG    CLOUDY    76  71  85 CALM      29.89S
PETERSBURG*    PTCLDY    73  63  69 CALM      29.94S

$$

VAZ036>039-050-240400-
CENTRAL FOOTHILLS

CITY           SKY/WX    TMP DP  RH WIND       PRES   REMARKS
CHARLOTTESVILL MOCLDY    73  71  93 CALM      29.89S FOG
ORANGE*        MOCLDY    73  68  83 CALM      29.91R

$$

VAZ055>057-240400-
NORTH AND CENTRAL PIEDMONT

CITY           SKY/WX    TMP DP  RH WIND       PRES   REMARKS
FREDERICKSBRG* MOCLDY    79  71  74 CALM      29.86F
STAFFORD*      CLOUDY    76  76  99 CALM      29.91S

$$

NCZ024-NYZ072-PAZ021-071-VAZ022-071-240400-
OTHER REGIONAL OBSERVATIONS

CITY           SKY/WX    TMP DP  RH WIND       PRES   REMARKS
NEW YORK CITY  LGT RAIN  75  72  90 W5        29.85F
PHILADELPHIA   CLOUDY    75  68  78 NW9       29.84F
PITTSBURGH     CLOUDY    67  60  78 N10       30.01S
ROANOKE        CLOUDY    79  66  65 W7        29.96R
RICHMOND       MOCLDY    81  71  71 S6        29.86S
RALEIGH        PTCLDY    76  70  82 SW6       29.93F

$$

ANZ530>537-240400-
MARINE OBSERVATIONS

STATION/POSITION TIME  TEMP    WIND        PRES
                       AIR SEA DIR/SP/G
                 (UTC) (F)     (DEG/KT/KT) (MB)
THOMAS PT LIGHT  0300   79 80   70/  9/  9 1010.9R
BALT KEY BRIDGE  0300   77     250/  2/  3 1010.4R
COVE POINT       0300   83     360/  7/ 12 1010.1R
LEWISETTA        0300   83 83  320/  8/ 11 1010.8R
SOLOMONS ISLAND  0300      83                N/A
PINEY POINT      0300          320/ 14/ 16   N/A

$$




USA.gov is the U.S. government's official web portal to all federal, state and local government web resources and services.